Location: Passau
(48.5830°N, 13.4830°E)
Time: 16:12:15
(UTC+02:00)

SR - Visible Passes

Search period start: 19 May 2024 00:00
Search period end: 29 May 2024 00:00
Orbit: 579 x 860 km, 66.7° (Epoch: 18 May)

Date Brightness Start Highest point End Pass type
(mag) Time Alt. Az. Time Alt. Az. Time Alt. Az.
19 May ? 02:11:23 10° N 02:13:56 15° NNE 02:16:23 10° ENE visible
19 May ? 03:52:21 10° NNW 03:56:43 62° NE 04:00:54 10° SE visible
19 May ? 21:49:31 10° WNW 21:52:59 18° NNW 21:56:17 10° NNE visible
20 May ? 01:20:12 10° N 01:20:58 10° NNE 01:21:44 10° NNE visible
20 May ? 03:00:17 10° NNW 03:04:16 32° NE 03:08:07 10° ESE visible
20 May ? 04:42:10 10° NW 04:46:07 36° WSW 04:49:59 10° S visible
20 May ? 22:43:19 10° NNW 22:43:41 10° NNW 22:44:04 10° NNW visible
21 May ? 02:08:22 10° NNW 02:11:37 20° NE 02:14:47 10° E visible
21 May ? 03:49:40 10° NW 03:54:02 79° SW 03:58:14 10° SSE visible
21 May ? 21:48:10 10° WNW 21:50:42 14° NNW 21:53:10 10° N visible
22 May ? 01:16:40 10° N 01:18:47 13° NNE 01:20:51 10° NE visible
22 May ? 02:57:27 10° NNW 03:01:44 50° NE 03:05:50 10° SE visible
23 May ? 02:05:25 10° NNW 02:09:13 27° NE 02:12:52 10° E visible
23 May ? 03:47:05 10° NW 03:51:13 45° WSW 03:55:15 10° S visible
23 May ? 21:47:14 10° NW 21:48:30 11° NNW 21:49:44 10° N visible
24 May ? 01:13:32 10° N 01:16:30 17° NNE 01:19:22 10° ENE visible
24 May ? 02:54:41 10° NW 02:59:03 84° ENE 03:03:16 10° SE visible
24 May ? 04:38:30 10° W 04:40:10 12° WSW 04:41:48 10° SW visible
25 May ? 00:21:59 10° N 00:23:35 12° NNE 00:25:10 10° NE visible
25 May ? 02:02:31 10° NNW 02:06:40 41° NE 02:10:41 10° ESE visible
25 May ? 03:44:43 10° NW 03:48:18 26° WSW 03:51:11 13° SSW visible
26 May ? 01:10:31 10° NNW 01:14:05 24° NE 01:17:33 10° E visible
26 May ? 02:52:01 10° NW 02:56:15 57° WSW 02:58:55 21° SSE visible
27 May ? 00:18:42 10° N 00:21:18 15° NNE 00:23:50 10° ENE visible
27 May ? 01:59:41 10° NNW 02:04:00 68° NE 02:06:56 19° SE visible
27 May ? 03:42:47 10° WNW 03:45:16 15° WSW 03:46:06 15° WSW visible
27 May ? 23:27:26 10° N 23:28:20 11° NNE 23:29:14 10° NNE visible
28 May ? 01:07:33 10° NNW 01:11:34 34° NE 01:15:10 11° ESE visible
28 May ? 02:49:30 10° NW 02:53:21 32° WSW 02:54:19 29° SW visible
